Time,TemperatureF,DewpointF,PressureIn,WindDirection,WindDirectionDegrees,WindSpeedMPH,WindSpeedGustMPH,Humidity,HourlyPrecipIn,Conditions,Clouds,dailyrainin,SoftwareType,DateUTC
2013-03-18 00:00:00,27.9,27.7,29.84,ESE,112,7.8,-999.0,99,-99.99,,,0.00,Acu-Link.com,2013-03-18 05:00:00,
2013-03-18 00:15:00,28.0,27.8,29.84,East,90,6.3,-999.0,99,-99.99,,,0.00,Acu-Link.com,2013-03-18 05:15:00,
2013-03-18 00:30:00,28.0,27.8,29.83,ESE,112,6.3,-999.0,99,-99.99,,,0.00,Acu-Link.com,2013-03-18 05:30:00,
2013-03-18 00:46:00,28.0,27.8,29.82,ESE,112,7.8,-999.0,99,-99.99,,,0.00,Acu-Link.com,2013-03-18 05:46:00,
2013-03-18 01:16:00,27.9,27.7,29.80,SE,135,8.9,-999.0,99,-99.99,,,0.00,Acu-Link.com,2013-03-18 06:16:00,
2013-03-18 01:47:00,27.7,27.5,29.79,ESE,112,6.3,-999.0,99,-99.99,,,0.00,Acu-Link.com,2013-03-18 06:47:00,
2013-03-18 02:02:00,27.5,27.3,29.79,ESE,112,5.3,-999.0,99,-99.99,,,0.00,Acu-Link.com,2013-03-18 07:02:00,
2013-03-18 02:17:00,27.1,26.9,29.78,East,90,5.8,-999.0,99,-99.99,,,0.00,Acu-Link.com,2013-03-18 07:17:00,
2013-03-18 02:32:00,27.3,27.1,29.78,ENE,67,4.7,-999.0,99,-99.99,,,0.00,Acu-Link.com,2013-03-18 07:32:00,
2013-03-18 02:48:00,27.5,27.3,29.77,ESE,112,6.8,-999.0,99,-99.99,,,0.00,Acu-Link.com,2013-03-18 07:48:00,
2013-03-18 03:03:00,27.1,26.9,29.76,SSE,157,5.8,-999.0,99,-99.99,,,0.00,Acu-Link.com,2013-03-18 08:03:00,
2013-03-18 03:18:00,27.0,26.8,29.76,East,90,6.3,-999.0,99,-99.99,,,0.00,Acu-Link.com,2013-03-18 08:18:00,
2013-03-18 03:33:00,26.4,26.2,29.74,ESE,112,6.3,-999.0,99,-99.99,,,0.00,Acu-Link.com,2013-03-18 08:33:00,
2013-03-18 03:48:00,26.1,25.9,29.74,ESE,112,7.8,-999.0,99,-99.99,,,0.00,Acu-Link.com,2013-03-18 08:48:00,
2013-03-18 04:03:00,26.4,26.2,29.72,East,90,9.9,-999.0,99,-99.99,,,0.00,Acu-Link.com,2013-03-18 09:03:00,
2013-03-18 04:19:00,26.6,26.4,29.71,ESE,112,4.7,-999.0,99,-99.99,,,0.00,Acu-Link.com,2013-03-18 09:19:00,
2013-03-18 07:52:00,28.4,28.2,29.61,East,90,10.9,-999.0,99,-99.99,,,0.00,Acu-Link.com,2013-03-18 12:52:00,
2013-03-18 08:07:00,27.9,27.7,29.60,ESE,112,10.4,-999.0,99,-99.99,,,0.00,Acu-Link.com,2013-03-18 13:07:00,
2013-03-18 08:22:00,27.7,27.5,29.59,ESE,112,6.8,-999.0,99,-99.99,,,0.00,Acu-Link.com,2013-03-18 13:22:00,
2013-03-18 08:37:00,27.9,27.7,29.58,ESE,112,7.8,-999.0,99,-99.99,,,0.00,Acu-Link.com,2013-03-18 13:37:00,
2013-03-18 08:52:00,28.2,28.0,29.58,East,90,6.3,-999.0,99,-99.99,,,0.00,Acu-Link.com,2013-03-18 13:52:00,
2013-03-18 09:08:00,28.4,28.2,29.56,East,90,8.3,-999.0,99,-99.99,,,0.00,Acu-Link.com,2013-03-18 14:08:00,
2013-03-18 09:23:00,28.6,28.4,29.56,East,90,7.8,-999.0,99,-99.99,,,0.00,Acu-Link.com,2013-03-18 14:23:00,
2013-03-18 09:38:00,29.1,28.9,29.54,East,90,11.4,-999.0,99,-99.99,,,0.00,Acu-Link.com,2013-03-18 14:38:00,
2013-03-18 09:53:00,28.9,28.7,29.54,ESE,112,8.9,-999.0,99,-99.99,,,0.00,Acu-Link.com,2013-03-18 14:53:00,
2013-03-18 10:09:00,29.5,29.3,29.53,East,90,5.8,-999.0,99,-99.99,,,0.00,Acu-Link.com,2013-03-18 15:09:00,
2013-03-18 10:24:00,30.0,29.8,29.52,ESE,112,4.2,-999.0,99,-99.99,,,0.00,Acu-Link.com,2013-03-18 15:24:00,
2013-03-18 10:39:00,30.6,30.4,29.51,ESE,112,5.8,-999.0,99,-99.99,,,0.00,Acu-Link.com,2013-03-18 15:39:00,
2013-03-18 10:54:00,31.3,31.1,29.51,ESE,112,9.4,-999.0,99,-99.99,,,0.00,Acu-Link.com,2013-03-18 15:54:00,
2013-03-18 11:09:00,31.5,31.3,29.51,ESE,112,7.3,-999.0,99,-99.99,,,0.00,Acu-Link.com,2013-03-18 16:09:00,
2013-03-18 11:24:00,32.0,31.8,29.51,SSE,157,4.7,-999.0,99,-99.99,,,0.00,Acu-Link.com,2013-03-18 16:24:00,
2013-03-18 11:39:00,33.1,32.8,29.50,East,90,1.7,-999.0,99,-99.99,,,0.00,Acu-Link.com,2013-03-18 16:39:00,
2013-03-18 11:55:00,33.8,33.5,29.49,East,90,4.2,-999.0,99,-99.99,,,0.00,Acu-Link.com,2013-03-18 16:55:00,
2013-03-18 12:10:00,33.3,33.0,29.48,SE,135,2.7,-999.0,99,-99.99,,,0.00,Acu-Link.com,2013-03-18 17:10:00,
2013-03-18 12:25:00,34.0,33.7,29.48,SSE,157,4.7,-999.0,99,-99.99,,,0.00,Acu-Link.com,2013-03-18 17:25:00,
2013-03-18 12:40:00,34.0,33.7,29.47,SSE,157,5.8,-999.0,99,-99.99,,,0.00,Acu-Link.com,2013-03-18 17:40:00,
2013-03-18 12:56:00,35.4,35.1,29.45,SE,135,3.2,-999.0,99,-99.99,,,0.00,Acu-Link.com,2013-03-18 17:56:00,
2013-03-18 14:27:00,35.2,34.9,29.42,SSW,202,3.2,-999.0,99,-99.99,,,0.04,Acu-Link.com,2013-03-18 19:27:00,
2013-03-18 14:43:00,35.2,34.9,29.41,WSW,247,5.8,-999.0,99,-99.99,,,0.05,Acu-Link.com,2013-03-18 19:43:00,
2013-03-18 14:58:00,36.1,35.8,29.40,SW,225,4.2,-999.0,99,-99.99,,,0.07,Acu-Link.com,2013-03-18 19:58:00,
2013-03-18 15:13:00,34.3,34.0,29.41,WSW,247,5.3,-999.0,99,-99.99,,,0.08,Acu-Link.com,2013-03-18 20:13:00,
2013-03-18 15:28:00,34.3,34.0,29.41,SW,225,7.3,-999.0,99,-99.99,,,0.09,Acu-Link.com,2013-03-18 20:28:00,
2013-03-18 15:45:00,34.2,33.9,29.40,SW,225,7.8,-999.0,99,-99.99,,,0.09,Acu-Link.com,2013-03-18 20:45:00,
2013-03-18 16:01:00,34.3,34.0,29.39,SW,225,6.8,-999.0,99,-99.99,,,0.11,Acu-Link.com,2013-03-18 21:01:00,
2013-03-18 16:16:00,33.1,32.8,29.40,West,270,9.4,-999.0,99,-99.99,,,0.11,Acu-Link.com,2013-03-18 21:16:00,
2013-03-18 17:02:00,32.7,32.5,29.40,West,270,7.3,-999.0,99,-99.99,,,0.12,Acu-Link.com,2013-03-18 22:02:00,
2013-03-18 17:17:00,32.5,32.3,29.39,SW,225,8.9,-999.0,99,-99.99,,,0.12,Acu-Link.com,2013-03-18 22:17:00,
2013-03-18 17:32:00,32.4,32.2,29.40,WSW,247,9.9,-999.0,99,-99.99,,,0.12,Acu-Link.com,2013-03-18 22:32:00,
2013-03-18 17:48:00,32.2,32.0,29.40,West,270,7.8,-999.0,99,-99.99,,,0.12,Acu-Link.com,2013-03-18 22:48:00,
2013-03-18 18:03:00,32.2,32.0,29.40,SW,225,8.9,-999.0,99,-99.99,,,0.12,Acu-Link.com,2013-03-18 23:03:00,
2013-03-18 18:18:00,32.0,31.8,29.39,WSW,247,10.9,-999.0,99,-99.99,,,0.12,Acu-Link.com,2013-03-18 23:18:00,
2013-03-18 18:34:00,32.2,32.0,29.40,WSW,247,11.4,-999.0,99,-99.99,,,0.12,Acu-Link.com,2013-03-18 23:34:00,
2013-03-18 18:49:00,30.4,30.2,29.41,SW,225,11.9,-999.0,99,-99.99,,,0.12,Acu-Link.com,2013-03-18 23:49:00,
2013-03-18 19:04:00,28.0,27.8,29.42,West,270,15.0,-999.0,99,-99.99,,,0.12,Acu-Link.com,2013-03-19 00:04:00,
2013-03-18 19:20:00,26.6,26.4,29.44,WSW,247,14.5,-999.0,99,-99.99,,,0.12,Acu-Link.com,2013-03-19 00:20:00,
2013-03-18 19:35:00,24.1,23.9,29.45,West,270,11.4,-999.0,99,-99.99,,,0.12,Acu-Link.com,2013-03-19 00:35:00,
2013-03-18 19:50:00,24.6,24.4,29.46,WSW,247,17.1,-999.0,99,-99.99,,,0.12,Acu-Link.com,2013-03-19 00:50:00,
2013-03-18 20:05:00,24.1,23.9,29.47,West,270,15.0,-999.0,99,-99.99,,,0.12,Acu-Link.com,2013-03-19 01:05:00,
2013-03-18 20:20:00,23.4,23.2,29.48,WSW,247,17.6,-999.0,99,-99.99,,,0.12,Acu-Link.com,2013-03-19 01:20:00,
2013-03-18 21:06:00,22.3,22.1,29.50,West,270,15.0,-999.0,99,-99.99,,,0.12,Acu-Link.com,2013-03-19 02:06:00,
2013-03-18 21:22:00,21.4,21.2,29.51,West,270,16.1,-999.0,99,-99.99,,,0.12,Acu-Link.com,2013-03-19 02:22:00,
2013-03-18 21:37:00,21.0,20.5,29.51,West,270,23.8,-999.0,98,-99.99,,,0.12,Acu-Link.com,2013-03-19 02:37:00,
2013-03-18 21:52:00,20.5,20.3,29.52,WSW,247,11.4,-999.0,99,-99.99,,,0.12,Acu-Link.com,2013-03-19 02:52:00,
2013-03-18 22:08:00,20.1,19.9,29.53,West,270,10.9,-999.0,99,-99.99,,,0.12,Acu-Link.com,2013-03-19 03:08:00,
2013-03-18 22:23:00,19.0,17.8,29.52,WSW,247,15.0,-999.0,95,-99.99,,,0.12,Acu-Link.com,2013-03-19 03:23:00,
2013-03-18 22:38:00,18.7,17.5,29.53,West,270,16.1,-999.0,95,-99.99,,,0.12,Acu-Link.com,2013-03-19 03:38:00,
2013-03-18 22:53:00,18.1,17.6,29.53,WSW,247,12.5,-999.0,98,-99.99,,,0.12,Acu-Link.com,2013-03-19 03:53:00,
2013-03-18 23:08:00,18.0,17.8,29.53,WSW,247,16.6,-999.0,99,-99.99,,,0.12,Acu-Link.com,2013-03-19 04:08:00,
2013-03-18 23:24:00,17.8,17.6,29.53,WSW,247,11.4,-999.0,99,-99.99,,,0.12,Acu-Link.com,2013-03-19 04:24:00,
2013-03-18 23:39:00,17.8,17.6,29.54,West,270,9.4,-999.0,99,-99.99,,,0.12,Acu-Link.com,2013-03-19 04:39:00,
2013-03-18 23:55:00,18.1,17.9,29.54,West,270,11.4,-999.0,99,-99.99,,,0.12,Acu-Link.com,2013-03-19 04:55:00,